Stündliche Wetter Abong Mbang

Heute, 25 Juni, Freitag

Zeit Temperatur Niederschläge Wind Luftdruck Luftfeuchtigkeit
00:00 +19°C° 0.1 mm 0 m/S 702 mmHg 98%
01:00 +19°C° 0.1 mm 0 m/S 701 mmHg 98%
02:00 +19°C° 0 mm 0 m/S 701 mmHg 98%
03:00 +19°C° 0 mm 0 m/S 701 mmHg 98%
04:00 +19°C° 0 mm 0 m/S 701 mmHg 98%
05:00 +19°C° 0 mm 0 m/S 701 mmHg 98%
06:00 +19°C° 0 mm 0 m/S 701 mmHg 98%
07:00 +20°C° 0 mm 0 m/S 702 mmHg 97%
08:00 +21°C° 0.6 mm 0 m/S 702 mmHg 94%
09:00 +24°C° 0.6 mm 1 m/S 702 mmHg 90%
10:00 +26°C° 0.6 mm 1 m/S 703 mmHg 87%
11:00 +28°C° 0.3 mm 1 m/S 702 mmHg 76%
12:00 +30°C° 0.3 mm 1 m/S 702 mmHg 65%
13:00 +31°C° 0.3 mm 1 m/S 702 mmHg 54%
14:00 +31°C° 0.1 mm 1 m/S 701 mmHg 56%
15:00 +30°C° 0.1 mm 1 m/S 700 mmHg 58%
16:00 +30°C° 0.1 mm 1 m/S 700 mmHg 61%
17:00 +26°C° 0.1 mm 0 m/S 700 mmHg 68%
18:00 +25°C° 0.1 mm 0 m/S 700 mmHg 75%
19:00 +23°C° 0.1 mm 0 m/S 700 mmHg 82%
20:00 +23°C° 0 mm 0 m/S 700 mmHg 82%
21:00 +23°C° 0 mm 0 m/S 701 mmHg 83%
22:00 +22°C° 0 mm 0 m/S 701 mmHg 84%
23:00 +22°C° 0 mm 0 m/S 701 mmHg 85%

Morgen, 26 Juni, Samstag

Zeit Temperatur Niederschläge Wind Luftdruck Luftfeuchtigkeit
00:00 +24°C° 0 mm 1 m/S 700 mmHg 86%
01:00 +24°C° 0 mm 1 m/S 700 mmHg 87%
02:00 +23°C° 0.2 mm 1 m/S 700 mmHg 88%
03:00 +23°C° 0.2 mm 1 m/S 700 mmHg 89%
04:00 +23°C° 0.2 mm 1 m/S 700 mmHg 91%
05:00 +20°C° 0.7 mm 0 m/S 700 mmHg 93%
06:00 +20°C° 0.7 mm 0 m/S 701 mmHg 95%
07:00 +20°C° 0.7 mm 0 m/S 701 mmHg 97%
08:00 +22°C° 0.4 mm 0 m/S 701 mmHg 89%
09:00 +24°C° 0.4 mm 0 m/S 702 mmHg 81%
10:00 +26°C° 0.4 mm 0 m/S 702 mmHg 73%
11:00 +27°C° 0.8 mm 0 m/S 701 mmHg 68%
12:00 +28°C° 0.8 mm 0 m/S 701 mmHg 63%
13:00 +29°C° 0.8 mm 0 m/S 701 mmHg 58%
14:00 +29°C° 0.1 mm 0 m/S 700 mmHg 58%
15:00 +29°C° 0.1 mm 0 m/S 699 mmHg 57%
16:00 +29°C° 0.1 mm 0 m/S 699 mmHg 56%
17:00 +26°C° 0.1 mm 0 m/S 699 mmHg 66%
18:00 +26°C° 0.1 mm 1 m/S 699 mmHg 75%
19:00 +24°C° 0.1 mm 1 m/S 699 mmHg 84%
20:00 +23°C° 0.2 mm 1 m/S 699 mmHg 88%
21:00 +23°C° 0.2 mm 1 m/S 699 mmHg 91%
22:00 +20°C° 0.2 mm 0 m/S 700 mmHg 95%
23:00 +20°C° 0.4 mm 0 m/S 700 mmHg 96%

übermorgen, 27 Juni, Sonntag

Zeit Temperatur Niederschläge Wind Luftdruck Luftfeuchtigkeit
00:00 +22°C° 0.4 mm 1 m/S 700 mmHg 97%
01:00 +21°C° 0.4 mm 1 m/S 700 mmHg 98%
02:00 +21°C° 0.5 mm 1 m/S 699 mmHg 98%
03:00 +19°C° 0.5 mm 0 m/S 699 mmHg 99%
04:00 +19°C° 0.5 mm 0 m/S 699 mmHg 99%
05:00 +19°C° 0.5 mm 0 m/S 700 mmHg 99%
06:00 +21°C° 0.5 mm 1 m/S 700 mmHg 99%
07:00 +21°C° 0.5 mm 1 m/S 701 mmHg 98%
08:00 +22°C° 0.2 mm 1 m/S 701 mmHg 94%
09:00 +23°C° 0.2 mm 1 m/S 701 mmHg 90%
10:00 +24°C° 0.2 mm 1 m/S 702 mmHg 86%
11:00 +26°C° 0.2 mm 1 m/S 701 mmHg 77%
12:00 +28°C° 0.2 mm 1 m/S 701 mmHg 67%
13:00 +30°C° 0.2 mm 1 m/S 701 mmHg 57%
14:00 +29°C° 0.3 mm 1 m/S 700 mmHg 64%
15:00 +28°C° 0.3 mm 1 m/S 700 mmHg 70%
16:00 +28°C° 0.3 mm 1 m/S 699 mmHg 77%
17:00 +26°C° 1 mm 1 m/S 699 mmHg 83%
18:00 +24°C° 1 mm 1 m/S 700 mmHg 89%
19:00 +21°C° 1 mm 0 m/S 700 mmHg 95%
20:00 +20°C° 0 mm 0 m/S 700 mmHg 96%
21:00 +20°C° 0 mm 0 m/S 700 mmHg 97%
22:00 +20°C° 0 mm 0 m/S 701 mmHg 97%
23:00 +22°C° 0 mm 1 m/S 701 mmHg 98%

28 Juni, Montag

Zeit Temperatur Niederschläge Wind Luftdruck Luftfeuchtigkeit
00:00 +21°C° 0 mm 1 m/S 700 mmHg 98%
01:00 +21°C° 0 mm 1 m/S 700 mmHg 99%
02:00 +21°C° 0 mm 1 m/S 700 mmHg 99%
03:00 +21°C° 0 mm 1 m/S 700 mmHg 99%
04:00 +21°C° 0 mm 1 m/S 701 mmHg 99%
05:00 +21°C° 0 mm 1 m/S 701 mmHg 98%
06:00 +21°C° 0 mm 1 m/S 701 mmHg 98%
07:00 +21°C° 0 mm 1 m/S 702 mmHg 97%
08:00 +22°C° 0.4 mm 1 m/S 702 mmHg 95%
09:00 +22°C° 0.4 mm 1 m/S 703 mmHg 93%
10:00 +23°C° 0.4 mm 1 m/S 703 mmHg 91%
11:00 +24°C° 0.2 mm 1 m/S 703 mmHg 89%
12:00 +24°C° 0.2 mm 1 m/S 703 mmHg 87%
13:00 +25°C° 0.2 mm 1 m/S 702 mmHg 86%
14:00 +25°C° 0 mm 1 m/S 702 mmHg 85%
15:00 +25°C° 0 mm 1 m/S 701 mmHg 84%
16:00 +25°C° 0 mm 1 m/S 701 mmHg 84%
17:00 +24°C° 0.2 mm 1 m/S 701 mmHg 88%
18:00 +23°C° 0.2 mm 1 m/S 701 mmHg 92%
19:00 +23°C° 0.2 mm 1 m/S 701 mmHg 96%
20:00 +22°C° 0.9 mm 1 m/S 701 mmHg 97%
21:00 +22°C° 0.9 mm 1 m/S 702 mmHg 98%
22:00 +22°C° 0.9 mm 1 m/S 702 mmHg 99%
23:00 +22°C° 0.1 mm 1 m/S 702 mmHg 99%

29 Juni, Dienstag

Zeit Temperatur Niederschläge Wind Luftdruck Luftfeuchtigkeit
00:00 +20°C° 0.1 mm 2 m/S 702 mmHg 98%
01:00 +20°C° 0.1 mm 2 m/S 702 mmHg 98%
02:00 +21°C° 0.1 mm 1 m/S 702 mmHg 98%
03:00 +21°C° 0.1 mm 1 m/S 702 mmHg 98%
04:00 +21°C° 0.1 mm 1 m/S 702 mmHg 97%
05:00 +21°C° 0.1 mm 1 m/S 703 mmHg 98%
06:00 +21°C° 0.1 mm 1 m/S 703 mmHg 98%
07:00 +21°C° 0.1 mm 1 m/S 703 mmHg 98%
08:00 +19°C° 0.1 mm 0 m/S 704 mmHg 98%
09:00 +19°C° 0.1 mm 0 m/S 704 mmHg 98%
10:00 +19°C° 0.1 mm 0 m/S 704 mmHg 98%
11:00 +20°C° 0.1 mm 0 m/S 704 mmHg 98%
12:00 +22°C° 0.1 mm 1 m/S 703 mmHg 97%
13:00 +22°C° 0.1 mm 1 m/S 703 mmHg 97%
14:00 +22°C° 0 mm 1 m/S 703 mmHg 95%
15:00 +21°C° 0 mm 0 m/S 702 mmHg 93%
16:00 +21°C° 0 mm 0 m/S 702 mmHg 91%
17:00 +21°C° 0 mm 0 m/S 702 mmHg 93%
18:00 +20°C° 0 mm 0 m/S 702 mmHg 95%
19:00 +20°C° 0 mm 0 m/S 702 mmHg 97%
20:00 +20°C° 0 mm 0 m/S 702 mmHg 97%
21:00 +19°C° 0 mm 0 m/S 703 mmHg 97%
22:00 +19°C° 0 mm 0 m/S 703 mmHg 98%
23:00 +21°C° 0 mm 1 m/S 703 mmHg 98%

30 Juni, Mittwoch

Zeit Temperatur Niederschläge Wind Luftdruck Luftfeuchtigkeit
00:00 +21°C° 0 mm 1 m/S 703 mmHg 99%
01:00 +20°C° 0 mm 1 m/S 702 mmHg 99%
02:00 +21°C° 0 mm 1 m/S 703 mmHg 99%
03:00 +21°C° 0 mm 1 m/S 703 mmHg 99%
04:00 +19°C° 0 mm 0 m/S 703 mmHg 99%
05:00 +21°C° 0 mm 1 m/S 703 mmHg 98%
06:00 +21°C° 0 mm 1 m/S 703 mmHg 98%
07:00 +21°C° 0 mm 1 m/S 704 mmHg 97%
08:00 +22°C° 0 mm 1 m/S 704 mmHg 89%
09:00 +24°C° 0 mm 1 m/S 704 mmHg 81%
10:00 +25°C° 0 mm 2 m/S 704 mmHg 73%
11:00 +27°C° 0 mm 1 m/S 704 mmHg 67%
12:00 +28°C° 0 mm 1 m/S 704 mmHg 61%
13:00 +30°C° 0 mm 1 m/S 703 mmHg 54%
14:00 +30°C° 0 mm 1 m/S 703 mmHg 55%
15:00 +30°C° 0 mm 1 m/S 702 mmHg 55%
16:00 +30°C° 0 mm 1 m/S 702 mmHg 55%
17:00 +28°C° 0.1 mm 1 m/S 702 mmHg 66%
18:00 +25°C° 0.1 mm 1 m/S 702 mmHg 77%
19:00 +23°C° 0.1 mm 1 m/S 702 mmHg 88%
20:00 +21°C° 1.2 mm 0 m/S 702 mmHg 91%
21:00 +20°C° 1.2 mm 0 m/S 703 mmHg 95%
22:00 +19°C° 1.2 mm 0 m/S 703 mmHg 98%
23:00 +19°C° 0.7 mm 0 m/S 703 mmHg 98%
Mehr zeigen

Wir brauchen deine Erlaubnis

Meteoprog und unser Service Anbieter werden persönliche Daten aufbewahren, so wie Cookies, Geräte Bezeichnung oder ähnliche Technologien von deinem Gerät und Prozess, so wie Persönliche Daten Inhalte und Werbungen, genauso wie social Media und den Verkehr zu analysieren.

  • Aufbewahrung und/oder Zugang zu deiner Geräte Informationen.

    Cookies, Geräte Bezeichnung oder andere Informationen, können aufbewahrt oder Zugang zu deinem Gerät erhalten, für den Grund, der oben angegeben wird.

  • Personalisierte Werbung und Inhalte, Messungen, Einblick in das Publikum und Produkt Entwicklung.

    Werbungen und Inhalte können personalisiert werden, basierend auf ein Profil. Mehr Daten können besser personalisierte Werbungen und Inhalte hinzufügen. Werbung und Inhalte können gezeigt und gemessen werden. Einblicke über das Publikum, welche die Werbung gesehen haben und den Inhalt, können abgeleitet werden. So wie Daten können genutzt werden, um es zu verbessern oder die Benutzer Erfahrung zu verbessern das System und die Software.

Wenn du “Ich stimme zu” klickst, erlaubst du uns, die Cookies zu benutzen die Geräte Bezeichnung, den Web oder ähnliche Technologien zu benutzen. Deine Settings, können in deinem Gerät bei deinem Browser geändert werden.

Für den bestimmten Zweck, berechtigten Interessen beruhen darauf, mehr als auf den Inhalt. Du kannst mehr darüber in unseren Privaten und Cookie Politik lesen.